This is the latest recevied weather packets stored in our database for station/object W6JCZ-13. If no packets are shown the sender has not sent any weather packets the latest 10 day(s).
| Time | Temp. | Humidity | Pressure | Rain* | Wind** | Luminosity | Snow |
|---|---|---|---|---|---|---|---|
| 1788473427 | 22.22° C | 65% | 1010.6 hPa | 0 mm | - | - | - |
| 1788472816 | 22.22° C | 65% | 1010.6 hPa | 0 mm | - | - | - |
| 1788472215 | 22.22° C | 65% | 1010.8 hPa | 0 mm | - | - | - |
| 1788471617 | 22.22° C | 65% | 1010.7 hPa | 0 mm | - | - | - |
| 1788471018 | 22.22° C | 66% | 1010.7 hPa | 0 mm | - | - | - |
| 1788470418 | 22.22° C | 66% | 1010.8 hPa | 0 mm | - | - | - |
| 1788469817 | 22.22° C | 66% | 1010.9 hPa | 0 mm | - | - | - |
| 1788469218 | 21.67° C | 69% | 1010.9 hPa | 0 mm | - | - | - |
| 1788468618 | 21.67° C | 69% | 1011.2 hPa | 0 mm | - | - | - |
| 1788468018 | 21.67° C | 68% | 1011.2 hPa | 0 mm | - | - | - |
| 1788467418 | 21.11° C | 69% | 1011.2 hPa | 0 mm | - | - | - |
| 1788466817 | 21.11° C | 70% | 1011.3 hPa | 0 mm | - | - | - |
| 1788466217 | 21.11° C | 70% | 1011.4 hPa | 0 mm | - | - | - |
| 1788465620 | 21.11° C | 70% | 1011.5 hPa | 0 mm | - | - | - |
| 1788465017 | 20.56° C | 70% | 1011.7 hPa | 0 mm | - | - | - |
| 1788464417 | 20.56° C | 71% | 1011.8 hPa | 0 mm | - | - | - |
| 1788463817 | 20.56° C | 70% | 1011.9 hPa | 0 mm | - | - | - |
| 1788463217 | 20.56° C | 70% | 1012 hPa | 0 mm | - | - | - |
| 1788462617 | 21.11° C | 71% | 1012 hPa | 0 mm | - | - | - |
| 1788462017 | 21.11° C | 71% | 1012.1 hPa | 0 mm | - | - | - |
| 1788461417 | 20.56° C | 71% | 1012.1 hPa | 0 mm | - | - | - |
| 1788460817 | 20° C | 72% | 1012.2 hPa | 0 mm | - | - | - |
| 1788460217 | 20° C | 73% | 1012.3 hPa | 0 mm | - | - | - |
| 1788459617 | 20° C | 72% | 1012.4 hPa | 0 mm | - | - | - |
| 1788459017 | 20° C | 73% | 1012.4 hPa | 0 mm | - | - | - |
* Rain latest hour (hover to see other rain measurements)
** Current wind speed in m/s (hover to see current wind gust speed)